When you browse on this site, cookies collect data to enhance your experience and personalize the content and advertising you see.
Visit our Privacy Policy to learn more. By continuing to use the site, you agree to this use of cookies and data.
  • In Hungary
  • List of Countries
  • For 7 days
  • Water Temperature
  • Weather Map
  • News
  • Weather Widgets
  • user-avatar
    Login

    Hourly Weather Iguatu

    Today, 15 November, Friday

    Time Temperature Precipitation Wind Pressure Humidity
    00:00 +25°C° 0 mm 2 mps 738 mmHg 76%
    01:00 +24°C° 0 mm 2 mps 738 mmHg 82%
    02:00 +24°C° 0 mm 1 mps 739 mmHg 87%
    03:00 +23°C° 0 mm 1 mps 739 mmHg 92%
    04:00 +23°C° 0 mm 1 mps 739 mmHg 90%
    05:00 +22°C° 0 mm 0 mps 739 mmHg 88%
    06:00 +22°C° 0 mm 0 mps 740 mmHg 85%
    07:00 +27°C° 0 mm 1 mps 740 mmHg 69%
    08:00 +31°C° 0 mm 2 mps 740 mmHg 52%
    09:00 +35°C° 0 mm 2 mps 740 mmHg 35%
    10:00 +38°C° 0 mm 2 mps 740 mmHg 29%
    11:00 +41°C° 0 mm 2 mps 739 mmHg 24%
    12:00 +43°C° 0 mm 1 mps 738 mmHg 18%
    13:00 +43°C° 0 mm 1 mps 737 mmHg 17%
    14:00 +44°C° 0 mm 1 mps 736 mmHg 16%
    15:00 +44°C° 0 mm 1 mps 735 mmHg 15%
    16:00 +41°C° 0 mm 1 mps 735 mmHg 18%
    17:00 +37°C° 0 mm 1 mps 735 mmHg 21%
    18:00 +34°C° 0 mm 1 mps 735 mmHg 24%
    19:00 +34°C° 0 mm 3 mps 736 mmHg 34%
    20:00 +32°C° 0 mm 4 mps 736 mmHg 44%
    21:00 +30°C° 0 mm 5 mps 737 mmHg 53%
    22:00 +28°C° 0 mm 4 mps 737 mmHg 63%
    23:00 +27°C° 0 mm 3 mps 737 mmHg 73%

    Tomorrow, 16 November, Saturday

    Time Temperature Precipitation Wind Pressure Humidity
    00:00 +25°C° 0 mm 2 mps 737 mmHg 83%
    01:00 +25°C° 0 mm 2 mps 737 mmHg 83%
    02:00 +24°C° 0 mm 2 mps 737 mmHg 84%
    03:00 +24°C° 0 mm 2 mps 737 mmHg 85%
    04:00 +24°C° 0 mm 2 mps 738 mmHg 84%
    05:00 +24°C° 0 mm 2 mps 738 mmHg 83%
    06:00 +24°C° 0 mm 2 mps 738 mmHg 81%
    07:00 +27°C° 0 mm 2 mps 739 mmHg 70%
    08:00 +30°C° 0 mm 2 mps 739 mmHg 58%
    09:00 +32°C° 0 mm 2 mps 739 mmHg 47%
    10:00 +36°C° 0 mm 2 mps 738 mmHg 40%
    11:00 +38°C° 0 mm 2 mps 738 mmHg 34%
    12:00 +40°C° 0 mm 2 mps 737 mmHg 27%
    13:00 +41°C° 0 mm 2 mps 736 mmHg 25%
    14:00 +41°C° 0 mm 2 mps 735 mmHg 24%
    15:00 +41°C° 0 mm 2 mps 734 mmHg 22%
    16:00 +39°C° 0 mm 2 mps 735 mmHg 26%
    17:00 +36°C° 0 mm 1 mps 735 mmHg 29%
    18:00 +34°C° 0 mm 1 mps 735 mmHg 32%
    19:00 +34°C° 0 mm 2 mps 735 mmHg 39%
    20:00 +32°C° 0 mm 4 mps 736 mmHg 46%
    21:00 +30°C° 0 mm 5 mps 736 mmHg 53%
    22:00 +29°C° 0 mm 4 mps 737 mmHg 62%
    23:00 +27°C° 0 mm 3 mps 737 mmHg 71%

    Day after tomorrow, 17 November, Sunday

    Time Temperature Precipitation Wind Pressure Humidity
    00:00 +25°C° 0 mm 3 mps 737 mmHg 80%
    01:00 +25°C° 0 mm 3 mps 737 mmHg 81%
    02:00 +25°C° 0 mm 3 mps 737 mmHg 82%
    03:00 +25°C° 0 mm 3 mps 737 mmHg 83%
    04:00 +25°C° 0 mm 2 mps 737 mmHg 83%
    05:00 +25°C° 0 mm 2 mps 738 mmHg 84%
    06:00 +25°C° 0 mm 1 mps 738 mmHg 84%
    07:00 +27°C° 0 mm 2 mps 739 mmHg 73%
    08:00 +29°C° 0 mm 2 mps 739 mmHg 63%
    09:00 +31°C° 0 mm 2 mps 739 mmHg 52%
    10:00 +35°C° 0 mm 2 mps 739 mmHg 43%
    11:00 +37°C° 0 mm 3 mps 738 mmHg 35%
    12:00 +40°C° 0 mm 3 mps 738 mmHg 26%
    13:00 +42°C° 0 mm 3 mps 737 mmHg 25%
    14:00 +42°C° 0 mm 3 mps 736 mmHg 24%
    15:00 +42°C° 0 mm 3 mps 735 mmHg 23%
    16:00 +39°C° 0 mm 3 mps 735 mmHg 25%
    17:00 +37°C° 0 mm 2 mps 735 mmHg 28%
    18:00 +35°C° 0 mm 2 mps 735 mmHg 31%
    19:00 +34°C° 0 mm 3 mps 736 mmHg 38%
    20:00 +31°C° 0 mm 3 mps 736 mmHg 44%
    21:00 +30°C° 0 mm 4 mps 737 mmHg 51%
    22:00 +29°C° 0 mm 4 mps 737 mmHg 59%
    23:00 +27°C° 0 mm 3 mps 737 mmHg 68%

    18 November, Monday

    Time Temperature Precipitation Wind Pressure Humidity
    00:00 +26°C° 0 mm 3 mps 737 mmHg 76%
    01:00 +25°C° 0 mm 2 mps 737 mmHg 81%
    02:00 +25°C° 0 mm 2 mps 737 mmHg 85%
    03:00 +24°C° 0 mm 1 mps 737 mmHg 90%
    04:00 +24°C° 0 mm 2 mps 738 mmHg 87%
    05:00 +25°C° 0 mm 2 mps 738 mmHg 85%
    06:00 +25°C° 0 mm 2 mps 739 mmHg 82%
    07:00 +27°C° 0 mm 2 mps 739 mmHg 73%
    08:00 +28°C° 0 mm 2 mps 739 mmHg 63%
    09:00 +30°C° 0 mm 2 mps 740 mmHg 54%
    10:00 +34°C° 0 mm 2 mps 739 mmHg 45%
    11:00 +37°C° 0 mm 2 mps 739 mmHg 36%
    12:00 +40°C° 0 mm 2 mps 738 mmHg 27%
    13:00 +40°C° 0 mm 3 mps 737 mmHg 26%
    14:00 +40°C° 0 mm 3 mps 736 mmHg 25%
    15:00 +40°C° 0 mm 3 mps 735 mmHg 25%
    16:00 +38°C° 0 mm 2 mps 736 mmHg 27%
    17:00 +37°C° 0 mm 2 mps 736 mmHg 30%
    18:00 +34°C° 0 mm 1 mps 736 mmHg 33%
    19:00 +34°C° 0 mm 2 mps 736 mmHg 39%
    20:00 +33°C° 0 mm 4 mps 737 mmHg 45%
    21:00 +32°C° 0 mm 5 mps 737 mmHg 51%
    22:00 +29°C° 0 mm 4 mps 738 mmHg 58%
    23:00 +28°C° 0 mm 3 mps 738 mmHg 65%

    19 November, Tuesday

    Time Temperature Precipitation Wind Pressure Humidity
    00:00 +26°C° 0 mm 2 mps 738 mmHg 72%
    01:00 +26°C° 0 mm 2 mps 738 mmHg 75%
    02:00 +25°C° 0 mm 1 mps 738 mmHg 77%
    03:00 +25°C° 0 mm 1 mps 738 mmHg 80%
    04:00 +25°C° 0 mm 1 mps 739 mmHg 77%
    05:00 +25°C° 0 mm 2 mps 739 mmHg 75%
    06:00 +25°C° 0 mm 2 mps 740 mmHg 73%
    07:00 +28°C° 0 mm 2 mps 740 mmHg 62%
    08:00 +31°C° 0 mm 3 mps 740 mmHg 51%
    09:00 +34°C° 0 mm 3 mps 740 mmHg 41%
    10:00 +37°C° 0 mm 3 mps 740 mmHg 35%
    11:00 +39°C° 0 mm 3 mps 739 mmHg 29%
    12:00 +42°C° 0 mm 3 mps 738 mmHg 23%
    13:00 +43°C° 0 mm 3 mps 738 mmHg 21%
    14:00 +42°C° 0 mm 2 mps 737 mmHg 20%
    15:00 +42°C° 0 mm 2 mps 736 mmHg 18%
    16:00 +40°C° 0 mm 2 mps 736 mmHg 20%
    17:00 +38°C° 0 mm 2 mps 736 mmHg 23%
    18:00 +36°C° 0 mm 2 mps 736 mmHg 25%
    19:00 +35°C° 0 mm 3 mps 737 mmHg 34%
    20:00 +33°C° 0 mm 4 mps 737 mmHg 43%
    21:00 +30°C° 0 mm 5 mps 738 mmHg 53%
    22:00 +29°C° 0 mm 3 mps 738 mmHg 60%
    23:00 +27°C° 0 mm 2 mps 738 mmHg 68%

    20 November, Wednesday

    Time Temperature Precipitation Wind Pressure Humidity
    00:00 +26°C° 0 mm 1 mps 739 mmHg 76%
    01:00 +25°C° 0 mm 1 mps 739 mmHg 80%
    02:00 +24°C° 0 mm 1 mps 739 mmHg 85%
    03:00 +24°C° 0 mm 1 mps 739 mmHg 89%
    04:00 +24°C° 0 mm 1 mps 739 mmHg 87%
    05:00 +22°C° 0 mm 0 mps 740 mmHg 85%
    06:00 +23°C° 0 mm 0 mps 740 mmHg 83%
    07:00 +28°C° 0 mm 1 mps 740 mmHg 69%
    08:00 +32°C° 0 mm 1 mps 740 mmHg 55%
    09:00 +35°C° 0 mm 1 mps 741 mmHg 40%
    10:00 +38°C° 0 mm 2 mps 740 mmHg 35%
    11:00 +40°C° 0 mm 2 mps 739 mmHg 30%
    12:00 +42°C° 0 mm 2 mps 738 mmHg 25%
    13:00 +42°C° 0 mm 2 mps 737 mmHg 24%
    14:00 +42°C° 0 mm 2 mps 736 mmHg 23%
    15:00 +41°C° 0 mm 2 mps 735 mmHg 22%
    16:00 +39°C° 0 mm 2 mps 735 mmHg 24%
    17:00 +38°C° 0 mm 2 mps 735 mmHg 27%
    18:00 +35°C° 0 mm 1 mps 736 mmHg 30%
    19:00 +35°C° 0 mm 2 mps 736 mmHg 33%
    20:00 +34°C° 0 mm 2 mps 737 mmHg 35%
    21:00 +34°C° 0 mm 3 mps 738 mmHg 38%
    22:00 +31°C° 0 mm 3 mps 738 mmHg 48%
    23:00 +29°C° 0 mm 3 mps 738 mmHg 58%
    Show more